,,,PA_Meas_PMT16A,,PR_Meas_QMR101_102,,RH_Meas_QMH101,,SR_Meas_QMS101,,TA_Meas_QMH101,,GenWind,,GenWind,
date,time,status,PA,status,PR,status,RH,status,SR,status,TA,status,DirAvg,status,SpdAvg,
2008-04-23, 00:00:04,VALID,1002.15,VALID,0,VALID,89.1053,VALID,0.100563,VALID,26.2739,VALID,3,VALID,0.541016,
2008-04-23, 00:01:04,VALID,1002.18,VALID,0,VALID,89.1511,VALID,0.100563,VALID,26.2544,VALID,47,VALID,0.607422,
2008-04-23, 00:02:04,VALID,1002.18,VALID,0,VALID,89.235,VALID,0.100563,VALID,26.2759,VALID,12,VALID,0.655078,
2008-04-23, 00:03:04,VALID,1002.2,VALID,0,VALID,89.1969,VALID,0.100563,VALID,26.2349,VALID,20,VALID,0.597266,
2008-04-23, 00:04:05,VALID,1002.24,VALID,0,VALID,89.2045,VALID,0.100563,VALID,26.2759,VALID,15,VALID,0.442578,
2008-04-23, 00:05:05,VALID,1002.22,VALID,0,VALID,89.174,VALID,0.100563,VALID,26.2349,VALID,17,VALID,0.740625,
2008-04-23, 00:06:05,VALID,1002.28,VALID,0,VALID,89.1816,VALID,0,VALID,26.2349,VALID,357,VALID,0.508984,
2008-04-23, 00:07:05,VALID,1002.26,VALID,0,VALID,89.3037,VALID,0,VALID,26.2564,VALID,32,VALID,0.843359,
2008-04-23, 00:08:05,VALID,1002.26,VALID,0,VALID,89.1587,VALID,0.100563,VALID,26.2759,VALID,20,VALID,0.547266,
2008-04-23, 00:09:05,VALID,1002.25,VALID,0,VALID,89.1664,VALID,0,VALID,26.2154,VALID,20,VALID,0.375,
2008-04-23, 00:10:05,VALID,1002.26,VALID,0,VALID,89.4181,VALID,0,VALID,26.1765,VALID,20,VALID,0.176172,
2008-04-23, 00:11:05,VALID,1002.23,VALID,0,VALID,89.5631,VALID,0,VALID,26.1765,VALID,9,VALID,0.521875,
2008-04-23, 00:12:05,VALID,1002.24,VALID,0,VALID,89.4257,VALID,0.100563,VALID,26.2174,VALID,359,VALID,0.569141,
2008-04-23, 00:13:05,VALID,1002.21,VALID,0,VALID,89.4334,VALID,0,VALID,26.157,VALID,3,VALID,0.316016,
2008-04-23, 00:14:05,VALID,1002.18,VALID,0,VALID,89.7843,VALID,0,VALID,26.1395,VALID,14,VALID,0.610156,
2008-04-23, 00:15:05,VALID,1002.16,VALID,0,VALID,89.8606,VALID,0.100563,VALID,26.1375,VALID,323,VALID,0.294141,
2008-04-23, 00:16:05,VALID,1002.18,VALID,0,VALID,89.7004,VALID,0.100563,VALID,26.118,VALID,323,VALID,0.0597656,
2008-04-23, 00:17:05,VALID,1002.15,VALID,0,VALID,89.6088,VALID,0,VALID,26.12,VALID,323,VALID,0.377734,
2008-04-23, 00:18:05,VALID,1002.16,VALID,0,VALID,89.8072,VALID,0.100563,VALID,26.0401,VALID,323,VALID,0.0285156,
2008-04-23, 00:19:05,VALID,1002.14,VALID,0,VALID,90.0208,VALID,0.100563,VALID,26.0226,VALID,323,VALID,0.299219,
2008-04-23, 00:20:05,VALID,1002.14,VALID,0,VALID,90.1123,VALID,0,VALID,25.9642,VALID,323,VALID,0.00117188,
2008-04-23, 00:21:05,VALID,1002.13,VALID,0,VALID,90.3107,VALID,0.100563,VALID,25.9038,VALID,322,VALID,0.08125,
2008-04-23, 00:22:05,VALID,1002.15,VALID,0,VALID,90.4404,VALID,0,VALID,25.8453,VALID,305,VALID,0.327734,
2008-04-23, 00:23:05,VALID,1002.15,VALID,0,VALID,90.6311,VALID,0,VALID,25.8064,VALID,287,VALID,0.00351562,
2008-04-23, 00:24:05,VALID,1002.16,VALID,0,VALID,90.7455,VALID,0,VALID,25.7694,VALID,292,VALID,0.367578,
2008-04-23, 00:25:05,VALID,1002.11,VALID,0,VALID,90.921,VALID,0,VALID,25.7304,VALID,293,VALID,0.0636719,
2008-04-23, 00:26:05,VALID,1002.12,VALID,0,VALID,91.0507,VALID,0,VALID,25.6525,VALID,309,VALID,0.532031,
2008-04-23, 00:27:05,VALID,1002.13,VALID,0,VALID,91.2033,VALID,0,VALID,25.6545,VALID,314,VALID,0.271875,
2008-04-23, 00:28:05,VALID,1002.09,VALID,0,VALID,91.3406,VALID,0,VALID,25.5765,VALID,317,VALID,0.248828,
2008-04-23, 00:29:05,VALID,1002.12,VALID,0,VALID,91.5084,VALID,0,VALID,25.5571,VALID,320,VALID,0.021875,
2008-04-23, 00:30:05,VALID,1002.13,VALID,0,VALID,91.5695,VALID,0,VALID,25.4967,VALID,321,VALID,0.0925781,
2008-04-23, 00:31:05,VALID,1002.12,VALID,0,VALID,91.7525,VALID,0,VALID,25.4577,VALID,321,VALID,0,
2008-04-23, 00:32:05,VALID,1002.13,VALID,0,VALID,91.9204,VALID,0,VALID,25.4383,VALID,321,VALID,0.146094,
2008-04-23, 00:33:05,VALID,1002.14,VALID,0,VALID,92.1035,VALID,0,VALID,25.3993,VALID,321,VALID,0.0859375,
2008-04-23, 00:34:05,VALID,1002.13,VALID,0,VALID,92.1798,VALID,0,VALID,25.3798,VALID,321,VALID,0.0210938,
2008-04-23, 00:35:05,VALID,1002.15,VALID,0,VALID,92.2637,VALID,0,VALID,25.3604,VALID,321,VALID,0,
2008-04-23, 00:36:05,VALID,1002.17,VALID,0,VALID,92.401,VALID,0,VALID,25.3019,VALID,321,VALID,0.209766,
2008-04-23, 00:37:05,VALID,1002.15,VALID,0,VALID,92.4773,VALID,0,VALID,25.2844,VALID,321,VALID,0.338672,
2008-04-23, 00:38:05,VALID,1002.14,VALID,0,VALID,92.5231,VALID,0,VALID,25.224,VALID,192,VALID,0.624219,
2008-04-23, 00:39:05,VALID,1002.12,VALID,0,VALID,92.5993,VALID,0.100563,VALID,25.1637,VALID,192,VALID,0.334766,
2008-04-23, 00:40:05,VALID,1002.15,VALID,0,VALID,92.7977,VALID,0.100563,VALID,25.1267,VALID,192,VALID,0.0433594,
2008-04-23, 00:41:05,VALID,1002.13,VALID,0,VALID,93.0113,VALID,0.100563,VALID,25.0877,VALID,192,VALID,0.105469,
2008-04-23, 00:42:05,VALID,1002.17,VALID,0,VALID,93.1639,VALID,0.100563,VALID,25.0469,VALID,192,VALID,0,
2008-04-23, 00:43:05,VALID,1002.18,VALID,0,VALID,93.3241,VALID,0,VALID,25.0274,VALID,192,VALID,0,
2008-04-23, 00:44:05,VALID,1002.17,VALID,0,VALID,93.4462,VALID,0.100563,VALID,25.0293,VALID,192,VALID,0,
2008-04-23, 00:45:05,VALID,1002.2,VALID,0,VALID,93.5148,VALID,0.100563,VALID,24.9885,VALID,192,VALID,0,
2008-04-23, 00:46:05,VALID,1002.19,VALID,0,VALID,93.5758,VALID,0.100563,VALID,24.969,VALID,192,VALID,0.152344,
2008-04-23, 00:47:05,VALID,1002.2,VALID,0,VALID,93.7742,VALID,0.100563,VALID,24.9709,VALID,192,VALID,0.0417969,
2008-04-23, 00:48:05,VALID,1002.26,VALID,0,VALID,93.7971,VALID,0.100563,VALID,24.9709,VALID,192,VALID,0,
2008-04-23, 00:49:05,VALID,1002.27,VALID,0,VALID,93.8505,VALID,0,VALID,24.9514,VALID,189,VALID,0.308984,
2008-04-23, 00:50:05,VALID,1002.32,VALID,0,VALID,94.0031,VALID,0,VALID,24.93,VALID,159,VALID,0.457812,
2008-04-23, 00:51:05,VALID,1002.34,VALID,0,VALID,94.1022,VALID,0.100563,VALID,24.9514,VALID,127,VALID,0.619922,
2008-04-23, 00:52:05,VALID,1002.36,VALID,0,VALID,94.2167,VALID,0.100563,VALID,24.93,VALID,112,VALID,0.502344,
2008-04-23, 00:53:05,VALID,1002.37,VALID,0,VALID,94.2624,VALID,0.100563,VALID,24.9495,VALID,112,VALID,0.144922,
2008-04-23, 00:54:05,VALID,1002.39,VALID,0,VALID,94.3692,VALID,0,VALID,24.9922,VALID,112,VALID,0.05,
2008-04-23, 00:55:05,VALID,1002.37,VALID,0,VALID,94.4303,VALID,0,VALID,25.0098,VALID,112,VALID,0.263672,
2008-04-23, 00:56:05,VALID,1002.4,VALID,0,VALID,94.3921,VALID,0,VALID,25.0293,VALID,112,VALID,0.421875,
2008-04-23, 00:57:05,VALID,1002.35,VALID,0,VALID,94.3387,VALID,0,VALID,25.0877,VALID,113,VALID,0.189844,
2008-04-23, 00:58:05,VALID,1002.34,VALID,0,VALID,94.0717,VALID,0,VALID,25.1072,VALID,101,VALID,0.4125,
2008-04-23, 00:59:05,VALID,1002.34,VALID,0,VALID,93.9878,VALID,0,VALID,25.0877,VALID,101,VALID,0.01875,
2008-04-23, 01:00:05,VALID,1002.33,VALID,0,VALID,93.9878,VALID,0,VALID,25.0877,VALID,101,VALID,0,
2008-04-23, 01:01:05,VALID,1002.31,VALID,0,VALID,93.9497,VALID,0,VALID,25.0877,VALID,101,VALID,0,
2008-04-23, 01:02:05,VALID,1002.28,VALID,0,VALID,93.9802,VALID,0,VALID,25.0877,VALID,101,VALID,0.200391,
2008-04-23, 01:03:05,VALID,1002.27,VALID,0,VALID,94.0183,VALID,0,VALID,25.0877,VALID,101,VALID,0.275781,
2008-04-23, 01:04:05,VALID,1002.27,VALID,0,VALID,94.0412,VALID,0,VALID,25.0877,VALID,101,VALID,0.245703,
2008-04-23, 01:05:05,VALID,1002.24,VALID,0,VALID,94.087,VALID,0,VALID,25.0877,VALID,101,VALID,0.288672,
2008-04-23, 01:06:05,VALID,1002.21,VALID,0,VALID,94.1175,VALID,0,VALID,25.0877,VALID,101,VALID,0.210156,
2008-04-23, 01:07:05,VALID,1002.21,VALID,0,VALID,94.1328,VALID,0,VALID,25.1267,VALID,101,VALID,0.173828,
2008-04-23, 01:08:05,VALID,1002.15,VALID,0,VALID,94.0946,VALID,0,VALID,25.1267,VALID,101,VALID,0,
2008-04-23, 01:09:05,VALID,1002.13,VALID,0,VALID,94.0641,VALID,0,VALID,25.1072,VALID,101,VALID,0.351172,
2008-04-23, 01:10:05,VALID,1002.11,VALID,0,VALID,93.9649,VALID,0,VALID,25.0877,VALID,14,VALID,0.558203,
2008-04-23, 01:11:05,VALID,1002.1,VALID,0,VALID,93.9115,VALID,0,VALID,25.0682,VALID,14,VALID,0.319922,
2008-04-23, 01:12:05,VALID,1002.1,VALID,0,VALID,93.9878,VALID,0,VALID,25.0488,VALID,14,VALID,0.316406,
2008-04-23, 01:13:05,VALID,1002.09,VALID,0,VALID,94.0641,VALID,0,VALID,25.0488,VALID,14,VALID,0.382813,
2008-04-23, 01:14:05,VALID,1002.1,VALID,0,VALID,94.148,VALID,0,VALID,25.0293,VALID,14,VALID,0.536719,
2008-04-23, 01:15:05,VALID,1002.07,VALID,0,VALID,94.1099,VALID,0,VALID,25.0507,VALID,360,VALID,0.8375,
2008-04-23, 01:16:05,VALID,1002.03,VALID,0,VALID,94.1785,VALID,0,VALID,24.9904,VALID,352,VALID,0.791797,
2008-04-23, 01:17:05,VALID,1002.01,VALID,0,VALID,94.2777,VALID,0,VALID,24.9904,VALID,353,VALID,0.804297,
2008-04-23, 01:18:05,VALID,1001.99,VALID,0,VALID,94.4684,VALID,0,VALID,25.0117,VALID,351,VALID,0.716406,
2008-04-23, 01:19:05,VALID,1001.97,VALID,0,VALID,94.5371,VALID,0,VALID,24.9904,VALID,352,VALID,0.644531,
2008-04-23, 01:20:05,VALID,1001.96,VALID,0,VALID,94.6286,VALID,0,VALID,25.0098,VALID,352,VALID,0.678906,
2008-04-23, 01:21:05,VALID,1001.97,VALID,0,VALID,94.6439,VALID,0,VALID,25.0293,VALID,353,VALID,0.591797,
2008-04-23, 01:22:05,VALID,1001.95,VALID,0,VALID,94.6057,VALID,0,VALID,25.0098,VALID,354,VALID,0.695703,
2008-04-23, 01:23:05,VALID,1001.94,VALID,0,VALID,94.621,VALID,0,VALID,25.0098,VALID,354,VALID,0.508984,
2008-04-23, 01:24:05,VALID,1001.97,VALID,0,VALID,94.6439,VALID,0,VALID,25.0117,VALID,354,VALID,0.300391,
2008-04-23, 01:25:05,VALID,1001.96,VALID,0,VALID,94.7049,VALID,0,VALID,25.0098,VALID,354,VALID,0.225,
2008-04-23, 01:26:05,VALID,1001.95,VALID,0,VALID,94.6897,VALID,0,VALID,24.9904,VALID,354,VALID,0,
2008-04-23, 01:27:05,VALID,1001.94,VALID,0,VALID,94.6897,VALID,0,VALID,25.0312,VALID,354,VALID,0,
2008-04-23, 01:28:05,VALID,1001.95,VALID,0,VALID,94.6973,VALID,0,VALID,25.0098,VALID,354,VALID,0.275391,
2008-04-23, 01:29:05,VALID,1001.91,VALID,0,VALID,94.6973,VALID,0,VALID,24.9904,VALID,354,VALID,0.334766,
2008-04-23, 01:30:05,VALID,1001.92,VALID,0,VALID,94.7354,VALID,0,VALID,24.9904,VALID,354,VALID,0.341016,
2008-04-23, 01:31:05,VALID,1001.83,VALID,0,VALID,94.766,VALID,0,VALID,24.9904,VALID,354,VALID,0.401953,
2008-04-23, 01:32:05,VALID,1001.8,VALID,0,VALID,94.8194,VALID,0,VALID,24.9904,VALID,354,VALID,0.335938,
2008-04-23, 01:33:05,VALID,1001.8,VALID,0,VALID,94.8575,VALID,0,VALID,25.0098,VALID,354,VALID,0.20625,
2008-04-23, 01:34:05,VALID,1001.75,VALID,0,VALID,94.8422,VALID,0,VALID,25.0098,VALID,354,VALID,0,
2008-04-23, 01:35:05,VALID,1001.72,VALID,0,VALID,94.9338,VALID,0,VALID,25.0312,VALID,354,VALID,0.00273437,
2008-04-23, 01:36:05,VALID,1001.71,VALID,0,VALID,94.9033,VALID,0,VALID,25.0507,VALID,354,VALID,0.373437,
2008-04-23, 01:37:05,VALID,1001.69,VALID,0,VALID,94.8728,VALID,0,VALID,25.0293,VALID,354,VALID,0.31875,
2008-04-23, 01:38:05,VALID,1001.69,VALID,0,VALID,94.8728,VALID,0,VALID,25.0488,VALID,354,VALID,0.394531,
2008-04-23, 01:39:05,VALID,1001.65,VALID,0,VALID,94.9033,VALID,0,VALID,25.0488,VALID,354,VALID,0.408984,
2008-04-23, 01:40:05,VALID,1001.66,VALID,0,VALID,94.8956,VALID,0,VALID,25.0682,VALID,354,VALID,0.441406,
2008-04-23, 01:41:05,VALID,1001.65,VALID,0,VALID,94.888,VALID,0,VALID,25.0896,VALID,354,VALID,0.377734,
2008-04-23, 01:42:05,VALID,1001.63,VALID,0,VALID,94.9262,VALID,0,VALID,25.0682,VALID,354,VALID,0.444922,
2008-04-23, 01:43:05,VALID,1001.61,VALID,0,VALID,94.9109,VALID,0,VALID,25.0877,VALID,354,VALID,0.320313,
2008-04-23, 01:44:05,VALID,1001.62,VALID,0,VALID,94.9109,VALID,0,VALID,25.0877,VALID,354,VALID,0.314453,
2008-04-23, 01:45:05,VALID,1001.55,VALID,0,VALID,94.8956,VALID,0,VALID,25.0877,VALID,354,VALID,0.287109,
2008-04-23, 01:46:05,VALID,1001.53,VALID,0,VALID,94.9414,VALID,0,VALID,25.0877,VALID,355,VALID,0.45625,
2008-04-23, 01:47:05,VALID,1001.49,VALID,0,VALID,94.949,VALID,0,VALID,25.0877,VALID,355,VALID,0.460938,
2008-04-23, 01:48:05,VALID,1001.49,VALID,0,VALID,94.9185,VALID,0,VALID,25.0877,VALID,355,VALID,0.513672,
2008-04-23, 01:49:05,VALID,1001.5,VALID,0,VALID,94.9033,VALID,0,VALID,25.1091,VALID,354,VALID,0.635156,
2008-04-23, 01:50:05,VALID,1001.49,VALID,0,VALID,94.9338,VALID,0,VALID,25.0682,VALID,355,VALID,0.645703,
2008-04-23, 01:51:05,VALID,1001.51,VALID,0,VALID,94.9719,VALID,0,VALID,25.0877,VALID,356,VALID,0.700391,
2008-04-23, 01:52:05,VALID,1001.51,VALID,0,VALID,95.0024,VALID,0,VALID,25.0877,VALID,355,VALID,0.608594,
2008-04-23, 01:53:05,VALID,1001.54,VALID,0,VALID,95.0024,VALID,0,VALID,25.0896,VALID,347,VALID,0.671094,
2008-04-23, 01:54:05,VALID,1001.57,VALID,0,VALID,95.033,VALID,0,VALID,25.1091,VALID,349,VALID,0.616797,
2008-04-23, 01:55:05,VALID,1001.57,VALID,0,VALID,95.0024,VALID,0,VALID,25.1091,VALID,349,VALID,0.564844,
2008-04-23, 01:56:05,VALID,1001.59,VALID,0,VALID,94.9872,VALID,0,VALID,25.0877,VALID,347,VALID,0.499609,
2008-04-23, 01:57:05,VALID,1001.6,VALID,0,VALID,95.0253,VALID,0,VALID,25.1072,VALID,348,VALID,0.610937,
2008-04-23, 01:58:05,VALID,1001.57,VALID,0,VALID,95.0482,VALID,0,VALID,25.1286,VALID,350,VALID,0.498047,
2008-04-23, 01:59:05,VALID,1001.6,VALID,0,VALID,95.0558,VALID,0,VALID,25.1286,VALID,352,VALID,0.546484,
2008-04-23, 02:00:05,VALID,1001.59,VALID,0,VALID,95.0864,VALID,0,VALID,25.1267,VALID,352,VALID,0.384375,
2008-04-23, 02:01:05,VALID,1001.63,VALID,0,VALID,95.1016,VALID,0,VALID,25.148,VALID,352,VALID,0.558594,
2008-04-23, 02:02:05,VALID,1001.65,VALID,0,VALID,95.0024,VALID,0,VALID,25.1675,VALID,352,VALID,0.637109,
2008-04-23, 02:03:05,VALID,1001.67,VALID,0,VALID,94.9872,VALID,0,VALID,25.148,VALID,357,VALID,0.970312,
2008-04-23, 02:04:05,VALID,1001.7,VALID,0,VALID,94.9719,VALID,0,VALID,25.1267,VALID,354,VALID,0.630078,
2008-04-23, 02:05:05,VALID,1001.72,VALID,0,VALID,95.0177,VALID,0,VALID,25.148,VALID,286,VALID,0.496875,
2008-04-23, 02:06:05,VALID,1001.74,VALID,0,VALID,95.0101,VALID,0,VALID,25.1656,VALID,345,VALID,0.407031,
2008-04-23, 02:07:05,VALID,1001.75,VALID,0,VALID,94.8728,VALID,0,VALID,25.1267,VALID,7,VALID,0.355078,
2008-04-23, 02:08:05,VALID,1001.76,VALID,0,VALID,94.7507,VALID,0,VALID,25.1675,VALID,2,VALID,0.792578,
2008-04-23, 02:09:05,VALID,1001.76,VALID,0,VALID,94.7202,VALID,0,VALID,25.148,VALID,352,VALID,0.688672,
2008-04-23, 02:10:05,VALID,1001.77,VALID,0,VALID,94.7278,VALID,0,VALID,25.1675,VALID,343,VALID,0.264062,
2008-04-23, 02:11:05,VALID,1001.75,VALID,0,VALID,94.6973,VALID,0,VALID,25.1675,VALID,340,VALID,0.787109,
2008-04-23, 02:12:05,VALID,1001.73,VALID,0,VALID,94.682,VALID,0,VALID,25.1656,VALID,359,VALID,0.864062,
2008-04-23, 02:13:05,VALID,1001.72,VALID,0,VALID,94.6668,VALID,0,VALID,25.1851,VALID,333,VALID,0.778516,
2008-04-23, 02:14:05,VALID,1001.68,VALID,0,VALID,94.6363,VALID,0,VALID,25.224,VALID,320,VALID,0.0546875,
2008-04-23, 02:15:05,VALID,1001.62,VALID,0,VALID,94.5295,VALID,0,VALID,25.2844,VALID,286,VALID,0.498437,
2008-04-23, 02:16:05,VALID,1001.6,VALID,0,VALID,94.5295,VALID,0,VALID,25.2825,VALID,251,VALID,0.412109,
2008-04-23, 02:17:05,VALID,1001.56,VALID,0,VALID,94.3464,VALID,0,VALID,25.3214,VALID,285,VALID,0.371875,
2008-04-23, 02:18:05,VALID,1001.54,VALID,0,VALID,94.2243,VALID,0,VALID,25.3409,VALID,285,VALID,0.0492188,
2008-04-23, 02:19:05,VALID,1001.5,VALID,0,VALID,94.148,VALID,0,VALID,25.3798,VALID,305,VALID,0.241016,
2008-04-23, 02:20:05,VALID,1001.53,VALID,0,VALID,94.0717,VALID,0,VALID,25.4012,VALID,23,VALID,0.476563,
2008-04-23, 02:21:05,VALID,1001.51,VALID,0,VALID,94.0107,VALID,0,VALID,25.4207,VALID,73,VALID,0.365625,
2008-04-23, 02:22:05,VALID,1001.55,VALID,0,VALID,93.9725,VALID,0,VALID,25.4207,VALID,73,VALID,0.238672,
2008-04-23, 02:23:05,VALID,1001.56,VALID,0,VALID,93.9725,VALID,0,VALID,25.4597,VALID,73,VALID,0.373047,
2008-04-23, 02:24:05,VALID,1001.59,VALID,0,VALID,93.9497,VALID,0,VALID,25.4383,VALID,93,VALID,0.867969,
2008-04-23, 02:25:05,VALID,1001.63,VALID,0,VALID,93.8581,VALID,0,VALID,25.3974,VALID,106,VALID,1.09336,
2008-04-23, 02:26:05,VALID,1001.67,VALID,0,VALID,94.0107,VALID,0,VALID,25.4383,VALID,117,VALID,1.53906,
2008-04-23, 02:27:05,VALID,1001.64,VALID,0,VALID,94.0946,VALID,0,VALID,25.4383,VALID,112,VALID,1.32266,
2008-04-23, 02:28:05,VALID,1001.62,VALID,0,VALID,94.1251,VALID,0,VALID,25.4363,VALID,98,VALID,0.919141,
2008-04-23, 02:29:05,VALID,1001.62,VALID,0,VALID,94.1785,VALID,0,VALID,25.4772,VALID,106,VALID,0.846484,
2008-04-23, 02:30:05,VALID,1001.57,VALID,0,VALID,94.1633,VALID,0,VALID,25.5162,VALID,78,VALID,0.969141,
2008-04-23, 02:31:05,VALID,1001.55,VALID,0,VALID,94.0946,VALID,0,VALID,25.5357,VALID,79,VALID,0.737109,
2008-04-23, 02:32:05,VALID,1001.55,VALID,0,VALID,94.0946,VALID,0,VALID,25.5551,VALID,40,VALID,0.441797,
2008-04-23, 02:33:05,VALID,1001.54,VALID,0,VALID,94.1099,VALID,0,VALID,25.5765,VALID,18,VALID,0.91875,
2008-04-23, 02:34:05,VALID,1001.57,VALID,0,VALID,94.0488,VALID,0,VALID,25.5746,VALID,30,VALID,1.90078,
2008-04-23, 02:35:05,VALID,1001.65,VALID,0,VALID,93.881,VALID,0,VALID,25.6136,VALID,64,VALID,2.26563,
2008-04-23, 02:36:05,VALID,1001.62,VALID,0,VALID,92.4773,VALID,0,VALID,25.6525,VALID,29,VALID,1.99844,
2008-04-23, 02:37:05,VALID,1001.62,VALID,0,VALID,89.0901,VALID,0,VALID,25.6739,VALID,22,VALID,2.40937,
2008-04-23, 02:38:05,VALID,1001.58,VALID,0,VALID,87.0074,VALID,0,VALID,25.7109,VALID,63,VALID,2.36094,
2008-04-23, 02:39:05,VALID,1001.57,VALID,0,VALID,87.0989,VALID,0,VALID,25.7694,VALID,1,VALID,1.34141,
2008-04-23, 02:40:05,VALID,1001.54,VALID,0,VALID,86.3513,VALID,0,VALID,25.7889,VALID,4,VALID,2.32539,
2008-04-23, 02:41:05,VALID,1001.54,VALID,0,VALID,86.1224,VALID,0,VALID,25.7519,VALID,27,VALID,3.45078,
2008-04-23, 02:42:05,VALID,1001.6,VALID,0,VALID,87.8466,VALID,0,VALID,25.672,VALID,360,VALID,2.12734,
2008-04-23, 02:43:05,VALID,1001.63,VALID,0,VALID,89.2884,VALID,0,VALID,25.5746,VALID,23,VALID,2.34609,
2008-04-23, 02:44:05,VALID,1001.62,VALID,0.5,VALID,90.3946,VALID,0,VALID,25.4383,VALID,8,VALID,1.24766,
2008-04-23, 02:45:05,VALID,1001.56,VALID,0,VALID,90.242,VALID,0,VALID,25.2825,VALID,27,VALID,1.84609,
2008-04-23, 02:46:05,VALID,1001.6,VALID,0.5,VALID,90.9973,VALID,0,VALID,25.1656,VALID,17,VALID,2.32031,
2008-04-23, 02:47:04,VALID,1001.62,VALID,0,VALID,91.3482,VALID,0,VALID,25.0877,VALID,27,VALID,1.9125,
2008-04-23, 02:48:04,VALID,1001.62,VALID,0,VALID,91.7068,VALID,0,VALID,24.9904,VALID,34,VALID,2.34336,
2008-04-23, 02:49:04,VALID,1001.66,VALID,0.5,VALID,91.9051,VALID,0,VALID,24.893,VALID,26,VALID,2.33711,
2008-04-23, 02:50:04,VALID,1001.63,VALID,0,VALID,92.1111,VALID,0.100563,VALID,24.7743,VALID,21,VALID,1.8832,
2008-04-23, 02:51:04,VALID,1001.67,VALID,0,VALID,92.1721,VALID,0,VALID,24.6983,VALID,3,VALID,2.61992,
2008-04-23, 02:52:04,VALID,1001.67,VALID,0.5,VALID,91.9433,VALID,0,VALID,24.6204,VALID,31,VALID,3.29023,
2008-04-23, 02:53:04,VALID,1001.66,VALID,0,VALID,92.2484,VALID,0,VALID,24.5814,VALID,15,VALID,2.93555,
2008-04-23, 02:54:04,VALID,1001.67,VALID,0,VALID,92.5383,VALID,0,VALID,24.562,VALID,24,VALID,2.76211,
2008-04-23, 02:55:04,VALID,1001.61,VALID,0.5,VALID,92.7901,VALID,0,VALID,24.5425,VALID,353,VALID,1.91875,
2008-04-23, 02:56:04,VALID,1001.65,VALID,0,VALID,92.4849,VALID,0,VALID,24.4646,VALID,4,VALID,3.2332,
2008-04-23, 02:57:04,VALID,1001.69,VALID,0,VALID,92.9732,VALID,0,VALID,24.4451,VALID,32,VALID,2.42539,
2008-04-23, 02:58:04,VALID,1001.66,VALID,0.5,VALID,93.202,VALID,0,VALID,24.3886,VALID,7,VALID,1.7543,
2008-04-23, 02:59:04,VALID,1001.65,VALID,0,VALID,93.3088,VALID,0,VALID,24.3283,VALID,17,VALID,2.61914,
2008-04-23, 03:00:04,VALID,1001.69,VALID,0,VALID,93.4309,VALID,0,VALID,24.2699,VALID,17,VALID,2.31523,
2008-04-23, 03:01:04,VALID,1001.74,VALID,0.5,VALID,93.7895,VALID,0,VALID,24.2504,VALID,27,VALID,1.6043,
2008-04-23, 03:02:04,VALID,1001.78,VALID,0,VALID,93.7284,VALID,0,VALID,24.231,VALID,13,VALID,2.55234,
2008-04-23, 03:03:04,VALID,1001.79,VALID,0,VALID,93.8047,VALID,0,VALID,24.2523,VALID,34,VALID,2.59219,
2008-04-23, 03:04:04,VALID,1001.8,VALID,0,VALID,93.7589,VALID,0,VALID,24.2699,VALID,15,VALID,2.36602,
2008-04-23, 03:05:04,VALID,1001.83,VALID,0,VALID,93.5911,VALID,0,VALID,24.2486,VALID,32,VALID,2.4293,
2008-04-23, 03:06:04,VALID,1001.85,VALID,0,VALID,93.7284,VALID,0,VALID,24.2894,VALID,14,VALID,2.34492,
2008-04-23, 03:07:04,VALID,1001.85,VALID,0,VALID,93.5987,VALID,0,VALID,24.2504,VALID,17,VALID,2.53047,
2008-04-23, 03:08:04,VALID,1001.86,VALID,0,VALID,93.6445,VALID,0,VALID,24.231,VALID,1,VALID,2.05703,
2008-04-23, 03:09:04,VALID,1001.89,VALID,0,VALID,93.3088,VALID,0,VALID,24.231,VALID,19,VALID,2.55273,
2008-04-23, 03:10:04,VALID,1001.86,VALID,0,VALID,93.2402,VALID,0,VALID,24.231,VALID,6,VALID,1.76875,
2008-04-23, 03:11:04,VALID,1001.9,VALID,0,VALID,93.3088,VALID,0,VALID,24.2097,VALID,9,VALID,1.96953,
2008-04-23, 03:12:04,VALID,1001.86,VALID,0,VALID,93.0571,VALID,0,VALID,24.192,VALID,53,VALID,1.65391,
2008-04-23, 03:13:04,VALID,1001.92,VALID,0,VALID,92.9884,VALID,0.100563,VALID,24.192,VALID,360,VALID,2.80938,
2008-04-23, 03:14:04,VALID,1001.87,VALID,0,VALID,92.4468,VALID,0,VALID,24.1513,VALID,351,VALID,2.54063,
2008-04-23, 03:15:04,VALID,1001.92,VALID,0,VALID,92.8435,VALID,0,VALID,24.1707,VALID,17,VALID,1.68008,
2008-04-23, 03:16:04,VALID,1001.92,VALID,0,VALID,92.8511,VALID,0,VALID,24.192,VALID,23,VALID,1.52773,
2008-04-23, 03:17:04,VALID,1001.95,VALID,0,VALID,93.0113,VALID,0,VALID,24.192,VALID,26,VALID,1.08633,
2008-04-23, 03:18:04,VALID,1001.99,VALID,0,VALID,92.8892,VALID,0,VALID,24.1726,VALID,28,VALID,1.69492,
2008-04-23, 03:19:04,VALID,1002.01,VALID,0,VALID,93.0952,VALID,0,VALID,24.1531,VALID,38,VALID,1.30742,
2008-04-23, 03:20:04,VALID,1002.04,VALID,0,VALID,92.9961,VALID,0,VALID,24.1318,VALID,28,VALID,1.83281,
2008-04-23, 03:21:04,VALID,1002.03,VALID,0.5,VALID,92.7748,VALID,0,VALID,24.1336,VALID,20,VALID,1.83438,
2008-04-23, 03:22:04,VALID,1002.06,VALID,0,VALID,92.7519,VALID,0,VALID,24.1123,VALID,22,VALID,1.98516,
2008-04-23, 03:23:04,VALID,1002.07,VALID,0,VALID,92.546,VALID,0,VALID,24.1318,VALID,46,VALID,2.20977,
2008-04-23, 03:24:04,VALID,1002.12,VALID,0,VALID,92.8358,VALID,0,VALID,24.1142,VALID,33,VALID,1.5293,
2008-04-23, 03:25:04,VALID,1002.1,VALID,0,VALID,92.7672,VALID,0.100563,VALID,24.0752,VALID,20,VALID,1.88867,
2008-04-23, 03:26:04,VALID,1002.1,VALID,0,VALID,92.8282,VALID,0,VALID,24.0557,VALID,69,VALID,1.29492,
2008-04-23, 03:27:04,VALID,1002.1,VALID,0,VALID,93.1105,VALID,0,VALID,24.0363,VALID,41,VALID,1.33359,
2008-04-23, 03:28:04,VALID,1002.08,VALID,0.5,VALID,93.3622,VALID,0,VALID,23.9955,VALID,48,VALID,1.26328,
2008-04-23, 03:29:04,VALID,1002.11,VALID,0,VALID,93.6292,VALID,0.100563,VALID,23.9371,VALID,57,VALID,1.21445,
2008-04-23, 03:30:04,VALID,1002.1,VALID,0.5,VALID,93.8123,VALID,0.100563,VALID,23.9177,VALID,27,VALID,1.96328,
2008-04-23, 03:31:04,VALID,1002.13,VALID,0,VALID,94.0336,VALID,0,VALID,23.9,VALID,63,VALID,1.12656,
2008-04-23, 03:32:04,VALID,1002.1,VALID,0.5,VALID,93.9573,VALID,0,VALID,23.8611,VALID,35,VALID,2.04063,
2008-04-23, 03:33:04,VALID,1002.1,VALID,0,VALID,94.0565,VALID,0,VALID,23.8221,VALID,20,VALID,2.16406,
2008-04-23, 03:34:04,VALID,1002.12,VALID,0.5,VALID,94.293,VALID,0,VALID,23.8027,VALID,29,VALID,0.985547,
2008-04-23, 03:35:04,VALID,1002.13,VALID,0,VALID,94.4532,VALID,0,VALID,23.7637,VALID,65,VALID,1.18867,
2008-04-23, 03:36:04,VALID,1002.18,VALID,0.5,VALID,94.6134,VALID,0,VALID,23.7443,VALID,51,VALID,1.32109,
2008-04-23, 03:37:04,VALID,1002.19,VALID,0,VALID,94.766,VALID,0.100563,VALID,23.7248,VALID,31,VALID,1.69375,
2008-04-23, 03:38:04,VALID,1002.2,VALID,0,VALID,94.8575,VALID,0,VALID,23.7053,VALID,59,VALID,1.49297,
2008-04-23, 03:39:04,VALID,1002.19,VALID,0,VALID,94.7583,VALID,0.100563,VALID,23.6646,VALID,66,VALID,2.54141,
2008-04-23, 03:40:04,VALID,1002.21,VALID,0,VALID,94.8194,VALID,0.100563,VALID,23.6664,VALID,50,VALID,1.71172,
2008-04-23, 03:41:04,VALID,1002.23,VALID,0,VALID,94.8422,VALID,0.100563,VALID,23.6452,VALID,60,VALID,1.79219,
2008-04-23, 03:42:04,VALID,1002.26,VALID,0.5,VALID,94.9338,VALID,0,VALID,23.6469,VALID,51,VALID,0.702734,
2008-04-23, 03:43:04,VALID,1002.26,VALID,0,VALID,94.9796,VALID,0,VALID,23.6469,VALID,30,VALID,2.1207,
2008-04-23, 03:44:04,VALID,1002.3,VALID,0,VALID,95.0024,VALID,0,VALID,23.6469,VALID,86,VALID,1.19023,